Location: DaVinci Observatory
(43.1080°N, 78.6453°W)
Time: 00:14:03
(UTC-04:00)

Tiangong 1 - Pass Details

Date: 15 October 2017
Orbit: 292 x 319 km, 42.8° (Epoch: 22 October)

Event Time Altitude Azimuth Distance (km) Brightness Sun altitude
Rises 20:14:53 0° 272° (W) 2,039 6.4 -19.7°
Reaches altitude 10° 20:17:30 10° 244° (WSW) 1,200 4.4 -20.1°
Maximum altitude 20:18:58 14° 211° (SSW) 1,011 3.4 -20.4°
Enters shadow 20:19:07 14° 207° (SSW) 1,012 3.4 -20.4°
